Location: Unspecified
(40.6500°N, 0.0000°E)
Time: 00:19:11
(UTC+00:00)

DMSP 5D-2 F13 DEB - Visible Passes

Search period start: 05 April 2026 00:00
Search period end: 15 April 2026 00:00
Orbit: 772 x 848 km, 98.9° (Epoch: 23 March)

Date Brightness Start Highest point End Pass type
(mag) Time Alt. Az. Time Alt. Az. Time Alt. Az.
5 Apr ? 02:51:33 10° ENE 02:54:15 14° E 02:56:54 10° ESE visible
5 Apr ? 04:29:07 10° N 04:34:38 76° WNW 04:40:02 10° SSW visible
6 Apr ? 04:05:17 10° NNE 04:10:46 67° ESE 04:16:10 10° S visible
7 Apr ? 03:41:39 10° NNE 03:46:49 40° E 03:51:53 10° SSE visible
8 Apr ? 03:18:19 10° NE 03:22:46 25° E 03:27:08 10° SSE visible
8 Apr ? 04:57:34 10° N 05:02:44 43° WNW 05:07:49 10° SW visible
9 Apr ? 02:55:37 10° ENE 02:58:37 15° E 03:01:35 10° SE visible
9 Apr ? 04:33:29 10° N 04:38:57 70° WNW 04:44:18 10° SSW visible
10 Apr ? 04:09:35 10° NNE 04:15:04 73° ESE 04:20:27 10° S visible
11 Apr ? 03:45:53 10° NNE 03:51:06 44° E 03:56:12 10° S visible
12 Apr ? 03:22:27 10° NE 03:27:01 27° E 03:31:29 10° SSE visible
13 Apr ? 02:59:35 10° NE 03:02:50 16° E 03:06:03 10° SE visible
13 Apr ? 04:37:42 10° N 04:43:07 65° WNW 04:48:25 10° SSW visible
14 Apr ? 04:13:44 10° NNE 04:19:13 78° ESE 04:24:34 10° S visible
